Weather History for Galveston, TX

Change the Weather History Date:

Saturday, October 5, 2013

  Actual Average Record
Temperature  
Mean Temperature 82 °F 77 °F  
Max Temperature 88 °F 83 °F 91 °F (2006)
Min Temperature 75 °F 71 °F 57 °F (1932)
Degree Days  
Heating Degree Days 0 0  
Month to date heating degree days 0 0  
Since 1 July heating degree days 0 0  
Cooling Degree Days 17 12  
Month to date cooling degree days 82 64  
Year to date cooling degree days 3018 2957  
Growing Degree Days 34 (Base 50)    
Moisture  
Dew Point 78 °F    
Average Humidity 81    
Maximum Humidity 94    
Minimum Humidity 68    
Precipitation  
Precipitation T in 0.19 in 1.31 in (2001)
Month to date precipitation 0.84 0.97  
Year to date precipitation 30.13 38.18  
Snow  
Snow 0.00 in - 0.00 in (2002)
Month to date snowfall 0.0  
Since 1 July snowfall 0.0  
Since 1 September snowfall 0.0  
Snow Depth 0.00 in    
Sea Level Pressure  
Sea Level Pressure 29.90 in    
Wind  
Wind Speed 7 mph (SE)    
Max Wind Speed 28 mph    
Max Gust Speed 33 mph    
Visibility 10 miles    
Events Rain    
T = Trace of Precipitation, MM = Missing Value Source: NWS Daily Summary

Daily Weather History Graph

Daily Weather History Graph

Search for Another Location

Airport:

Trip Planner

Search our weather history database for the weather conditions in past years. The results will help you decide how hot, cold, wet, or windy it might be!

Date:

Astronomy

Oct. 05, 2013 Rise Set
Actual Time 7:15 AM CDT 7:00 PM CDT
Civil Twilight 6:51 AM CDT 7:23 PM CDT
Nautical Twilight 6:23 AM CDT 7:51 PM CDT
Astronomical Twilight 5:56 AM CDT 8:18 PM CDT
Moon 7:49 AM CDT (10/5) 7:27 PM CDT (10/5)
Length of Visible Light 12h 32m
Length of Day
11h 45m
New Moon, 1% of the Moon is Illuminated
Oct 5
New Moon
Oct 11
First Quarter
Oct 18
Full
Oct 26
Last Quarter
Nov 3
New

Hourly Weather History & Observations

Time (CDT) Temp. Heat Index Dew Point Humidity Pressure Visibility Wind Dir Wind Speed Gust Speed Precip Events Conditions
12:52 AM 81.0 °F 87.9 °F 77.0 °F 88% 29.91 in 10.0 mi SE 11.5 mph - N/A   Partly Cloudy
1:50 AM 80.6 °F 88.1 °F 78.8 °F 94% 29.91 in 10.0 mi SE 8.1 mph - 0.00 in Rain Light Rain
1:52 AM 81.0 °F 88.6 °F 78.1 °F 91% 29.91 in 10.0 mi SE 6.9 mph - 0.00 in Rain Light Rain
2:05 AM 80.6 °F 88.1 °F 78.8 °F 94% 29.91 in 10.0 mi SSE 9.2 mph - 0.00 in   Overcast
2:52 AM 81.0 °F 87.9 °F 77.0 °F 88% 29.90 in 10.0 mi SE 9.2 mph - 0.00 in   Partly Cloudy
3:11 AM 80.6 °F 87.1 °F 77.0 °F 89% 29.90 in 10.0 mi SE 8.1 mph - N/A   Mostly Cloudy
3:20 AM 80.6 °F 87.1 °F 77.0 °F 89% 29.90 in 10.0 mi SE 8.1 mph - N/A   Overcast
3:52 AM 80.1 °F 85.8 °F 77.0 °F 90% 29.90 in 10.0 mi SE 6.9 mph - N/A   Mostly Cloudy
4:35 AM 80.6 °F 87.1 °F 77.0 °F 89% 29.90 in 10.0 mi ESE 8.1 mph - N/A   Mostly Cloudy
4:52 AM 80.1 °F 85.8 °F 77.0 °F 90% 29.90 in 10.0 mi ESE 6.9 mph - N/A   Overcast
5:07 AM 80.6 °F 87.1 °F 77.0 °F 89% 29.90 in 10.0 mi SE 4.6 mph - N/A   Mostly Cloudy
5:52 AM 80.1 °F 85.8 °F 77.0 °F 90% 29.91 in 10.0 mi SE 5.8 mph - N/A   Mostly Cloudy
6:52 AM 80.1 °F 85.8 °F 77.0 °F 90% 29.91 in 10.0 mi ESE 3.5 mph - N/A   Mostly Cloudy
7:52 AM 80.1 °F 85.8 °F 77.0 °F 90% 29.91 in 10.0 mi ESE 3.5 mph - N/A   Partly Cloudy
8:52 AM 82.9 °F 92.8 °F 78.1 °F 85% 29.92 in 10.0 mi ESE 5.8 mph - N/A   Partly Cloudy
9:52 AM 84.0 °F 93.7 °F 77.0 °F 79% 29.93 in 10.0 mi ESE 5.8 mph - N/A   Scattered Clouds
10:52 AM 84.9 °F 95.3 °F 77.0 °F 77% 29.93 in 10.0 mi East 4.6 mph - N/A   Partly Cloudy
11:52 AM 84.9 °F 94.1 °F 75.9 °F 74% 29.93 in 10.0 mi SE 6.9 mph - N/A   Clear
12:52 PM 87.1 °F 98.8 °F 77.0 °F 72% 29.92 in 10.0 mi Variable 5.8 mph - N/A   Scattered Clouds
1:14 PM 87.8 °F 99.7 °F 77.0 °F 70% 29.91 in 10.0 mi ESE 8.1 mph - N/A   Mostly Cloudy
1:39 PM 86.0 °F 96.9 °F 77.0 °F 74% 29.91 in 10.0 mi East 8.1 mph - N/A   Scattered Clouds
1:52 PM 86.0 °F 96.9 °F 77.0 °F 74% 29.90 in 10.0 mi ESE 10.4 mph - N/A   Partly Cloudy
2:52 PM 87.1 °F 97.3 °F 75.9 °F 69% 29.88 in 10.0 mi SE 6.9 mph - N/A   Mostly Cloudy
3:10 PM 86.0 °F 95.1 °F 75.2 °F 70% 29.87 in 10.0 mi Variable 6.9 mph - N/A   Scattered Clouds
3:52 PM 86.0 °F 96.9 °F 77.0 °F 74% 29.86 in 10.0 mi ESE 6.9 mph - N/A   Partly Cloudy
4:14 PM 84.2 °F 96.1 °F 78.8 °F 84% 29.86 in 10.0 mi ESE 8.1 mph - N/A   Mostly Cloudy
4:23 PM 84.2 °F 96.1 °F 78.8 °F 84% 29.86 in 10.0 mi East 8.1 mph - N/A   Scattered Clouds
4:52 PM 84.9 °F 96.6 °F 78.1 °F 80% 29.86 in 10.0 mi ESE 8.1 mph - N/A   Scattered Clouds
5:52 PM 84.9 °F 96.6 °F 78.1 °F 80% 29.85 in 10.0 mi ESE 5.8 mph - N/A   Clear
6:52 PM 82.0 °F 91.0 °F 78.1 °F 88% 29.87 in 10.0 mi ESE 6.9 mph - N/A   Clear
7:52 PM 82.0 °F 91.0 °F 78.1 °F 88% 29.88 in 10.0 mi SSE 4.6 mph - N/A   Clear
8:52 PM 82.0 °F 91.0 °F 78.1 °F 88% 29.90 in 10.0 mi Calm Calm - N/A   Clear
9:52 PM 82.0 °F 91.0 °F 78.1 °F 88% 29.91 in 10.0 mi Calm Calm - N/A   Partly Cloudy
10:52 PM 81.0 °F 88.6 °F 78.1 °F 91% 29.91 in 10.0 mi Calm Calm - N/A   Clear
11:10 PM 82.4 °F 92.4 °F 78.8 °F 89% 29.91 in 10.0 mi Calm Calm - N/A   Mostly Cloudy
11:23 PM 82.4 °F 92.4 °F 78.8 °F 89% 29.91 in 10.0 mi WNW 6.9 mph - N/A   Mostly Cloudy
11:32 PM 82.4 °F 92.4 °F 78.8 °F 89% 29.91 in 10.0 mi WNW 5.8 mph - N/A   Scattered Clouds
11:52 PM 81.0 °F 88.6 °F 78.1 °F 91% 29.92 in 10.0 mi NNW 16.1 mph - N/A   Mostly Cloudy